Theta_e
313 314 315 315 314 313 314 314 314 315 315 314 315 315 316 315 315 315 315 315 315 315 314 315 315 314 312 312 312 312 322 328 331 331 331 336 342 330 336 336 337 328 328 322
313 314 314 313 312 312 313 314 314 314 314 314 314 314 315 315 315 315 315 315 315 315 315 314 314 316 316 311 312 312 312 320 327 329 330 331 327 331 330 327 336 338 331 326
313 313 312 312 312 312 313 314 314 313 313 314 314 315 315 315 315 314 314 315 314 315 314 313 315 317 317 318 313 313 312 312 315 326 330 331 329 328 326 330 329 337 339 336
313 313 312 312 312 313 313 313 312 312 314 314 314 314 315 315 315 315 315 315 315 314 313 315 317 317 316 315 313 313 313 312 313 312 320 328 330 329 329 330 332 345 343 339
313 312 312 312 313 313 313 313 313 313 314 315 314 315 315 315 315 315 315 314 313 314 314 316 316 315 316 315 314 312 312 312 312 312 313 313 317 323 318 329 331 341 345 340
313 313 312 313 313 313 313 313 314 314 315 315 314 315 314 314 315 315 314 312 313 315 315 316 316 316 316 316 317 317 313 312 312 312 313 313 314 318 325 331 332 335 345 341
314 314 313 312 313 314 314 314 315 314 316 315 314 314 314 314 314 314 313 312 312 313 316 316 315 316 316 316 318 319 320 318 312 313 312 314 317 314 315 316 328 335 341 342
315 315 314 313 314 314 315 314 314 314 314 314 314 314 315 314 313 312 312 313 314 315 315 315 315 316 316 317 318 320 320 320 321 314 314 313 315 319 322 321 324 331 337 341
315 315 314 313 313 314 314 314 314 314 314 315 315 314 314 314 313 313 313 314 313 314 313 314 315 316 317 317 318 318 318 318 319 320 318 317 316 314 315 319 322 324 324 339
315 316 314 314 313 313 313 313 314 314 315 316 314 314 314 314 313 313 314 313 313 314 312 313 315 316 317 317 317 316 316 316 318 318 320 321 322 322 316 314 314 316 320 321
314 315 313 314 314 313 314 313 313 314 316 317 315 314 315 314 314 314 314 313 314 313 312 314 315 315 315 316 316 315 315 315 317 318 319 322 323 324 324 316 314 315 316 318
313 314 315 314 313 313 313 313 314 316 315 315 315 315 315 315 314 313 314 313 313 313 313 315 314 314 315 316 314 313 314 315 316 317 319 322 324 326 327 326 315 314 315 316
313 314 315 314 314 313 313 313 313 314 316 316 317 315 315 315 315 314 315 314 313 314 315 315 314 314 315 314 313 312 313 314 316 316 318 320 322 324 329 331 319 316 318 317
312 315 314 315 313 313 314 312 313 314 317 316 314 315 315 315 315 316 315 315 315 315 315 315 315 314 314 314 314 313 312 314 316 316 317 319 321 324 327 331 323 326 332 334
313 315 313 313 312 311 312 312 312 313 315 315 313 314 315 315 316 315 314 314 315 315 315 314 314 314 314 314 314 313 312 313 315 316 316 318 320 323 329 333 332 331 332 334
310 311 311 312 311 310 311 313 313 312 313 313 313 314 314 314 314 315 314 315 314 315 315 314 314 314 314 314 315 312 312 313 314 313 316 317 320 322 327 334 334 333 334 337
309 312 313 313 311 311 313 312 312 313 313 313 314 314 314 315 315 315 314 314 314 314 314 314 314 314 314 314 313 312 311 312 312 313 315 316 319 323 328 335 334 335 336 339
309 310 311 313 311 314 312 312 313 314 315 314 315 315 314 315 314 313 313 313 314 314 314 314 315 314 314 313 313 312 308 310 310 310 311 316 320 324 329 336 334 336 340 343
308 309 311 313 313 312 312 314 314 315 315 314 314 314 315 313 313 313 312 313 313 314 314 314 314 314 313 313 312 309 309 310 309 310 313 318 322 325 333 335 336 342 344 345
310 308 310 313 316 315 314 313 313 313 315 316 315 314 314 313 314 313 313 313 313 313 314 314 313 313 312 312 311 310 310 310 310 315 320 321 323 328 335 336 341 344 343 344
312 311 312 312 315 314 314 313 313 316 315 313 312 312 311 314 314 313 313 312 313 313 313 312 311 311 311 311 310 310 311 311 315 317 321 325 330 333 336 342 344 343 343 343
313 314 314 315 316 315 312 312 314 313 312 312 312 312 311 311 311 311 311 310 311 311 311 310 310 310 310 310 310 311 312 312 315 332 334 335 335 338 339 343 343 343 343 339
314 312 313 313 314 312 311 311 310 310 310 309 310 311 310 310 310 310 309 309 308 309 309 310 309 309 309 310 311 312 312 315 326 331 336 338 337 338 342 342 343 342 340 338
310 309 311 312 312 311 310 310 310 310 310 310 310 310 310 309 309 308 307 307 307 308 309 308 308 308 308 310 312 312 310 319 326 328 333 336 341 339 343 343 341 340 339 339
309 310 310 310 310 307 308 309 308 309 310 310 307 307 307 307 307 306 306 307 306 305 306 306 307 307 308 310 313 312 313 321 326 328 333 336 338 339 341 341 341 341 338 339
306 307 308 308 304 303 304 306 307 309 309 307 307 306 306 304 303 304 304 303 304 306 306 305 306 307 309 312 312 313 316 323 327 328 332 334 335 337 339 338 336 335 333 332
Wind_Speed
6 9 11 8 3 8 9 10 12 10 8 12 16 17 18 22 23 25 24 22 21 15 11 10 7 6 7 10 9 7 16 34 42 33 16 13 15 20 24 24 33 33 50 40
9 13 9 5 6 8 10 12 13 9 10 11 16 20 20 20 22 23 21 24 23 18 15 11 7 4 6 7 9 10 9 16 36 41 44 35 32 22 21 24 27 36 44 43
10 5 1 8 9 11 13 13 11 13 12 16 19 20 20 9 11 13 17 12 15 11 7 4 4 5 7 7 9 9 11 13 17 35 45 53 38 38 36 32 36 33 40 41
9 6 8 9 10 8 13 5 8 12 13 13 7 10 11 11 12 5 6 5 7 6 2 2 3 5 8 10 10 12 12 12 10 15 26 40 49 39 49 40 43 30 33 40
9 10 12 12 13 11 15 3 12 13 15 17 19 11 14 3 9 6 5 2 2 4 4 5 5 7 9 11 13 15 16 15 13 15 19 23 31 44 42 42 33 31 33 27
19 15 9 15 10 10 9 12 15 16 13 14 20 15 10 7 8 12 9 8 4 6 6 5 6 10 12 12 12 14 17 19 19 19 19 23 29 31 29 28 30 43 30 24
19 19 18 11 14 9 11 14 11 11 10 11 6 6 12 5 5 4 11 12 10 9 7 8 12 14 13 15 16 15 13 17 22 23 24 23 28 32 34 34 30 30 24 24
16 15 16 13 16 16 11 10 10 13 11 9 4 7 1 4 4 10 11 7 5 7 7 13 16 14 15 17 17 20 20 20 20 24 26 28 28 29 28 31 32 28 26 26
8 15 6 6 8 10 11 10 9 15 17 15 13 13 12 13 8 8 9 5 9 6 13 16 15 14 15 17 18 19 22 26 25 24 27 28 30 32 35 35 33 29 31 25
12 13 16 9 6 15 15 10 7 9 8 14 10 11 8 11 3 4 7 12 13 14 21 21 20 18 17 18 20 23 24 27 28 28 27 27 28 29 35 38 38 37 35 35
11 10 13 7 13 16 9 13 11 11 12 10 12 4 8 3 7 10 10 13 13 22 23 21 20 20 22 22 22 25 27 28 27 28 29 28 29 30 31 36 40 40 37 35
12 7 13 17 13 11 14 18 16 11 15 14 13 14 5 3 6 8 16 23 26 22 22 20 22 22 21 22 26 27 28 30 28 29 30 29 30 29 31 34 39 40 40 38
5 9 11 14 13 4 11 17 16 16 16 17 13 12 2 9 15 20 20 21 21 22 22 21 20 20 20 22 24 29 31 32 28 29 31 32 32 32 30 33 36 39 40 37
2 15 17 14 16 5 7 10 12 17 12 15 20 26 22 21 20 17 20 20 20 21 19 19 20 22 24 25 27 30 33 31 29 30 30 31 32 35 33 32 36 36 32 29
10 18 18 21 21 20 24 23 23 22 24 24 26 28 24 23 21 21 23 23 20 21 21 22 26 29 31 29 31 32 32 30 31 32 32 33 32 34 35 33 34 32 32 31
16 22 22 25 21 19 20 23 25 27 28 29 29 30 25 28 27 18 21 19 22 23 24 26 29 30 28 30 33 32 34 32 33 37 35 34 34 33 35 33 34 33 34 32
13 10 12 17 17 11 14 23 25 26 25 23 24 24 18 14 16 15 20 25 27 26 27 29 32 30 31 32 33 33 36 35 37 37 38 38 36 35 35 33 34 37 37 35
19 14 8 9 11 13 15 8 11 13 14 13 16 17 17 17 16 21 26 31 27 27 29 34 33 32 33 33 34 37 43 39 43 51 49 39 34 36 33 35 37 38 39 42
18 15 5 6 9 16 21 11 9 11 17 16 14 13 13 19 27 29 32 21 25 30 32 32 31 33 35 36 35 44 44 44 52 52 42 35 31 34 34 38 39 40 41 41
5 2 5 5 5 5 1 1 7 10 15 12 10 13 17 26 20 19 29 30 32 33 34 34 34 36 35 37 38 40 43 46 53 36 30 35 33 34 38 40 41 43 43 41
2 2 13 13 7 8 6 8 7 7 6 25 26 27 28 18 22 34 33 35 35 36 36 36 36 37 36 37 38 44 38 46 42 47 44 36 37 42 41 42 44 44 41 39
3 3 4 5 5 6 10 17 9 19 28 29 32 29 29 33 36 35 37 37 39 37 37 36 37 38 36 38 40 42 43 52 52 19 35 37 42 43 44 44 43 44 44 41
3 4 4 4 5 18 19 18 24 22 25 30 31 35 31 37 40 37 39 42 44 43 42 38 37 40 38 38 34 36 39 42 42 35 30 36 42 42 44 47 46 42 39 43
5 7 6 9 2 13 23 29 23 24 30 34 37 39 38 39 41 44 43 43 45 45 37 33 38 39 37 30 26 32 31 28 22 26 17 29 36 39 40 40 39 38 37 37
8 9 9 14 17 23 17 22 32 34 36 36 39 40 41 41 44 40 39 39 40 41 39 36 38 37 33 27 23 24 23 16 8 16 11 20 32 39 40 37 32 30 34 42
5 3 3 6 25 23 26 36 38 39 38 39 39 45 39 30 37 40 37 33 33 34 31 25 25 26 24 20 20 17 16 8 3 9 15 23 30 37 39 40 37 34 35 33
Wind_Direction
191 262 229 252 263 307 283 270 268 273 276 281 275 275 273 269 264 261 254 248 251 245 239 222 226 243 239 250 259 263 216 251 260 259 267 283 275 277 255 261 259 240 249 256
238 241 263 254 250 258 252 261 264 279 263 281 283 277 280 269 263 258 261 251 240 235 214 222 256 284 289 272 275 267 257 223 230 252 253 269 281 278 279 276 257 249 249 247
272 8 178 216 239 252 247 263 282 289 302 277 269 276 254 246 250 248 259 260 236 221 232 225 278 313 327 328 295 280 273 247 240 240 239 254 265 273 268 272 281 256 242 241
262 181 220 235 257 261 273 267 278 280 283 285 321 287 282 267 248 248 169 176 196 219 219 280 295 307 315 305 308 300 287 291 265 241 238 231 253 263 270 269 269 263 248 233
248 211 218 248 269 288 269 272 278 282 282 284 269 257 271 222 204 187 184 103 289 282 242 254 290 310 315 311 307 303 299 288 289 272 250 238 232 239 250 242 245 270 253 232
256 262 256 264 286 269 275 266 262 259 263 262 254 248 264 188 227 167 187 328 249 274 281 251 274 297 297 300 300 300 294 288 281 275 266 253 242 239 240 243 235 236 241 238
238 237 237 251 250 212 241 258 272 263 214 253 90 272 258 260 253 234 307 293 263 272 260 271 302 298 295 299 302 302 298 293 294 281 266 259 252 246 244 243 239 238 238 231
273 260 207 209 236 265 250 255 273 282 273 278 240 260 153 42 257 298 285 289 264 233 282 287 296 289 294 300 307 305 309 305 299 287 269 262 257 253 250 250 242 241 239 236
266 254 206 252 240 239 264 230 286 282 268 267 258 254 240 220 222 223 240 227 272 267 301 299 297 283 284 295 297 301 304 302 301 294 280 265 261 258 252 244 241 247 244 238
271 272 258 245 232 245 250 276 223 212 264 261 253 257 267 189 307 250 243 259 277 271 305 302 298 293 284 291 295 300 296 300 293 294 283 273 268 262 257 253 246 244 247 245
267 251 268 205 235 256 187 228 228 279 256 261 279 273 80 240 283 297 292 289 277 297 294 289 290 291 290 292 294 295 297 299 289 287 285 275 270 264 260 252 246 242 245 248
240 275 265 263 273 264 258 273 242 232 236 227 263 277 354 13 330 296 271 278 284 286 283 280 286 289 286 287 298 298 296 294 287 284 278 273 266 263 260 255 245 240 242 245
236 242 262 252 210 232 242 244 248 248 251 259 269 255 233 228 302 302 298 293 281 279 281 285 287 282 283 285 295 301 298 290 274 280 271 267 264 260 255 255 247 240 241 243
283 262 257 268 290 274 248 263 243 239 234 242 254 276 273 284 297 298 301 294 280 277 276 283 287 285 285 286 291 301 297 286 277 280 274 266 265 260 255 253 246 239 231 225
228 259 260 266 272 273 276 269 264 237 235 253 274 271 276 281 290 297 294 293 285 273 276 282 289 292 286 283 292 296 298 286 280 284 275 267 263 257 252 251 245 237 227 221
257 262 264 267 267 262 268 267 263 256 256 259 262 268 276 277 274 279 299 292 290 285 284 290 297 299 287 284 289 295 299 289 281 284 273 268 262 256 248 242 235 227 220 213
250 253 263 259 261 273 258 253 249 251 252 254 258 263 273 296 289 295 300 294 290 289 288 290 295 292 290 290 292 293 294 288 284 280 275 268 259 254 245 236 224 215 209 201
250 247 266 275 289 259 259 262 266 275 275 276 259 262 269 286 296 296 299 293 288 285 296 299 294 291 294 292 290 288 297 289 284 284 277 259 248 244 238 224 213 205 197 188
230 235 242 250 243 268 288 295 268 296 282 299 290 283 318 308 297 288 282 306 305 301 296 294 295 292 296 292 290 292 294 288 289 279 268 248 242 234 222 210 202 194 183 181
224 283 213 223 245 264 90 66 328 307 275 53 2 306 301 306 295 292 312 312 301 297 294 295 296 295 295 293 295 291 289 289 291 281 262 252 231 224 208 197 189 181 178 174
85 163 215 228 252 280 336 11 338 266 325 320 314 306 304 298 294 302 299 298 292 290 292 295 296 294 296 295 299 296 295 295 306 278 268 220 203 192 189 182 177 169 166 162
247 266 185 218 252 272 7 335 317 316 311 313 309 306 300 294 295 295 296 297 294 292 292 293 295 295 297 298 301 298 306 307 319 74 147 158 167 171 176 168 163 163 158 160
290 341 306 285 281 324 322 311 307 304 293 291 290 297 295 291 291 294 298 298 295 292 291 290 293 294 295 296 300 301 307 328 347 36 115 140 155 155 158 161 156 155 153 160
318 317 267 311 276 310 313 308 304 306 301 302 302 299 295 293 292 298 300 298 296 294 290 288 292 288 290 295 299 300 316 339 358 18 99 133 141 147 150 151 154 152 155 152
298 315 330 289 292 330 297 301 304 301 301 299 305 304 302 300 295 297 292 290 287 284 284 286 283 283 284 290 296 308 315 339 2 7 108 132 141 142 145 141 140 149 154 159
32 340 289 291 304 291 286 297 299 296 308 312 311 304 299 296 290 292 289 285 285 286 285 281 278 277 282 284 293 300 309 328 344 352 138 150 151 148 148 141 132 138 146 146